Wind_Speed
4 3 3 3 2 1 2 2 2 3 4 4 4 5 6 6 6 6 6 7 7 7 7 7 7 7 7 7 8 8 8 7 7 7 7 7 7 7 6 6 6 6 6
4 4 3 2 1 0 2 3 2 3 3 2 3 4 6 7 6 6 6 7 7 8 8 8 8 8 8 7 8 8 8 8 9 9 8 8 8 9 9 8 8 8 8
4 3 2 2 1 1 2 3 2 3 3 3 4 4 5 7 6 6 7 7 7 7 7 8 8 8 8 8 8 9 9 9 10 9 10 10 10 9 9 10 10 10 10
3 2 1 1 1 1 2 1 2 3 3 4 4 5 5 5 6 7 7 7 7 8 8 9 8 8 9 9 9 9 9 10 10 10 11 11 11 11 11 11 11 11 11
3 2 2 2 2 2 2 2 3 3 3 4 4 4 4 5 5 6 7 7 7 8 8 8 8 9 9 9 9 10 10 10 10 11 11 11 12 12 12 12 12 12 13
3 3 2 2 2 2 2 2 3 3 4 4 4 5 5 6 6 7 7 8 7 8 8 9 10 10 10 10 10 10 10 11 11 12 12 12 13 13 13 13 13 13 13
3 2 2 3 2 2 2 3 3 4 4 4 5 5 5 6 6 7 7 7 8 9 9 10 10 10 11 11 11 11 11 11 12 13 13 13 14 14 15 14 14 14 14
4 3 3 3 3 3 3 3 4 4 4 5 5 6 6 7 7 8 8 9 10 10 10 10 11 10 11 12 12 12 12 13 13 13 14 15 15 16 16 16 16 16 15
4 3 3 3 3 3 4 4 4 4 5 6 6 7 7 8 8 9 9 10 10 10 11 11 11 12 12 13 13 13 12 13 14 14 15 15 16 16 17 17 17 17 17
4 4 4 4 4 4 4 5 5 6 6 6 6 6 8 8 9 9 9 9 10 10 11 11 12 12 13 13 13 13 13 14 14 15 15 15 15 16 16 17 18 18 18
5 5 5 5 5 5 5 5 6 6 7 6 6 7 7 8 8 9 9 10 10 11 11 11 12 13 13 14 14 14 14 14 15 15 16 16 16 17 17 18 19 19 19
6 6 6 6 6 6 6 6 6 6 7 7 7 8 9 9 9 10 10 10 11 11 12 12 12 13 14 14 15 15 16 16 16 16 17 18 17 17 18 19 19 20 20
6 6 7 7 6 7 7 8 8 7 8 8 9 9 10 10 11 11 11 11 11 11 12 12 13 14 14 14 15 16 17 17 17 17 17 18 18 18 18 18 18 19 19
8 7 7 7 8 8 8 8 9 9 9 9 10 10 11 11 11 11 11 12 12 13 13 13 14 15 16 16 16 18 19 19 19 18 19 19 19 20 19 19 18 18 19
9 8 8 8 8 9 9 10 11 10 11 11 11 12 12 12 13 13 13 13 13 13 13 14 15 15 16 17 18 18 19 19 19 19 19 19 20 19 19 18 18 18 19
9 9 9 9 9 9 10 11 12 12 13 12 13 13 13 14 14 14 14 14 14 15 15 15 16 17 17 17 18 19 18 18 19 19 20 20 20 20 20 20 20 20 20
10 10 10 11 11 11 12 12 13 14 14 14 14 14 14 15 14 14 14 15 16 16 16 16 17 18 18 18 19 19 19 19 19 20 20 20 20 21 20 21 21 21 20
12 12 12 13 13 13 13 14 14 14 15 15 15 15 15 15 15 16 16 16 16 17 17 18 18 19 19 19 19 19 19 19 19 19 19 19 19 20 20 20 20 21 20
14 14 15 15 14 14 15 15 15 16 16 16 16 17 16 16 16 16 17 17 18 19 19 19 19 19 20 20 20 20 20 19 19 19 19 19 19 20 20 20 20 21 20
16 17 17 17 16 16 16 16 17 18 18 18 18 18 19 19 18 18 18 19 20 20 20 20 20 20 20 20 19 20 20 19 19 20 20 20 20 20 19 19 20 20 20
18 18 19 18 18 17 18 18 18 18 19 19 19 20 20 20 19 20 20 20 20 20 20 21 21 21 21 20 20 20 20 20 20 20 19 20 20 20 20 20 20 20 21
20 20 19 19 19 19 20 20 20 20 20 20 20 20 20 21 21 21 21 21 21 21 21 21 21 22 22 22 22 22 21 21 20 20 20 20 20 20 19 19 19 21 23
22 21 21 21 21 21 22 22 22 22 22 21 21 21 21 22 22 22 22 22 22 22 22 22 22 23 23 23 23 23 22 21 21 20 20 19 19 20 21 22 22 23 24
24 23 23 23 23 23 23 23 24 24 24 23 23 23 23 23 22 22 23 23 22 23 24 24 23 23 24 24 24 23 23 22 21 21 21 20 20 22 22 23 23 23 23
26 25 25 25 24 25 25 25 26 25 25 24 24 24 24 24 23 23 23 23 22 22 23 23 23 23 23 23 23 23 23 23 22 22 22 23 22 23 23 23 23 24 24
27 27 26 26 26 26 27 27 27 27 26 26 26 26 25 25 25 25 25 25 24 23 23 23 23 24 24 24 24 24 24 23 23 22 22 23 23 23 24 24 24 24 24
Wind_Direction
100 93 93 99 107 198 242 260 252 245 253 252 241 242 240 236 241 246 255 257 254 256 260 261 265 266 268 272 267 261 258 252 252 251 252 256 255 259 263 263 264 267 269
93 90 91 80 92 316 279 259 262 255 248 266 257 254 245 244 245 254 260 262 258 258 260 262 269 269 269 269 267 259 259 256 258 253 252 258 263 266 263 265 267 268 270
79 75 73 71 48 308 262 248 249 250 259 282 285 268 253 246 245 257 262 264 262 261 260 262 266 271 274 276 268 264 261 258 259 261 259 263 265 268 265 265 267 270 271
79 68 56 31 22 319 257 282 268 276 279 278 273 267 257 255 258 265 265 262 261 261 264 268 270 272 272 275 270 267 264 262 261 262 262 266 266 268 268 269 269 269 271
51 32 17 3 357 333 304 312 322 310 288 281 271 266 267 274 279 279 278 275 267 266 267 269 273 274 275 275 272 269 271 271 266 264 264 267 267 268 269 269 268 268 270
31 18 11 1 350 337 323 317 304 297 284 283 281 276 284 286 290 290 287 282 278 275 276 275 274 273 275 278 275 273 274 274 273 269 267 267 268 269 271 270 268 269 272
25 21 11 353 340 336 329 319 307 297 291 290 289 284 285 287 285 289 292 290 287 284 280 279 279 276 274 278 279 279 277 276 275 273 271 270 270 270 270 269 269 269 271
18 13 6 349 339 338 329 318 314 308 299 296 291 287 290 290 287 287 287 289 287 286 285 285 281 283 280 278 278 279 279 278 276 275 274 272 271 270 269 267 268 269 271
2 355 348 339 334 335 334 328 318 315 309 301 293 288 288 289 288 289 290 291 289 285 283 285 284 282 285 283 282 283 282 280 278 279 280 279 277 274 269 267 267 268 270
353 344 334 329 319 317 322 323 322 319 317 310 301 293 290 289 288 288 289 288 289 289 287 286 284 280 281 283 284 285 282 280 281 281 282 282 281 279 275 271 270 269 269
352 345 336 332 326 318 317 321 320 316 314 309 302 301 300 298 297 293 291 288 287 288 291 293 288 285 283 284 283 282 282 283 283 281 280 281 280 278 276 273 271 269 270
344 343 335 331 325 320 314 317 314 311 311 309 305 302 302 301 301 297 291 289 287 288 290 293 293 291 288 288 287 286 282 280 281 281 281 280 280 280 277 275 271 270 270
332 331 326 323 320 317 314 312 312 310 309 308 305 302 299 298 299 296 293 290 288 288 289 290 292 294 294 291 288 287 287 282 281 282 283 283 280 281 279 277 274 274 273
334 331 331 325 321 317 314 309 310 308 305 306 306 303 300 299 299 296 292 290 288 289 289 289 291 292 291 291 289 288 288 286 284 284 283 283 281 279 280 278 276 276 275
331 330 332 330 325 319 313 309 309 306 301 300 300 300 300 298 297 295 294 293 293 291 293 293 294 294 292 290 292 291 290 286 286 286 284 282 280 278 277 276 276 276 274
326 325 326 324 322 319 316 314 310 307 302 299 300 300 300 299 297 293 291 291 290 291 292 292 292 294 294 294 294 293 293 287 285 286 285 283 280 277 275 274 274 274 275
322 321 320 320 319 316 312 309 308 306 306 304 301 301 299 297 296 294 292 291 291 290 291 291 292 294 294 293 293 293 293 291 289 287 286 282 280 278 277 275 274 275 274
320 318 317 315 315 313 310 308 307 305 304 304 304 302 300 297 295 294 293 292 292 290 289 290 292 294 293 292 291 293 293 291 291 290 287 282 281 279 278 275 274 275 275
312 313 313 311 310 309 307 304 303 301 301 302 302 301 297 297 296 295 295 295 294 293 292 290 291 292 292 288 289 293 294 292 291 291 289 284 283 279 277 276 275 275 276
307 308 309 307 305 304 304 303 302 301 301 300 300 300 298 296 294 293 294 296 296 294 293 292 292 293 294 292 290 292 296 293 291 293 291 285 284 282 279 277 276 276 278
304 303 304 302 301 301 301 302 302 303 301 299 299 299 298 297 292 291 293 295 295 294 293 292 292 293 295 293 291 292 294 294 294 294 291 286 282 279 280 280 279 278 278
303 302 304 302 299 299 299 299 298 299 298 298 297 297 297 295 294 291 291 292 293 294 294 293 293 292 292 292 292 292 293 294 294 294 291 288 284 283 283 283 281 281 281
302 301 301 300 298 297 296 296 296 296 295 295 295 295 295 295 296 293 291 292 293 294 294 294 293 292 292 291 292 292 293 293 293 293 293 290 286 284 284 284 283 284 283
297 297 298 298 296 296 295 294 295 295 295 295 294 292 293 293 293 293 292 292 292 293 294 293 292 294 294 292 290 290 290 290 290 291 293 290 287 286 285 286 287 286 284
294 294 295 296 296 295 293 293 293 292 293 293 293 292 291 290 291 291 292 292 291 292 294 293 293 294 294 293 292 290 289 289 288 289 288 289 287 286 286 288 289 287 286
291 292 293 293 294 293 293 292 291 291 291 291 290 290 290 289 288 288 289 292 292 292 291 291 291 293 292 291 291 290 289 288 288 287 286 287 288 287 287 288 289 288 288
Height
5885 5885 5886 5885 5885 5885 5886 5886 5887 5887 5887 5888 5888 5888 5889 5890 5890 5891 5891 5891 5892 5892 5892 5892 5892 5892 5892 5892 5892 5892 5892 5893 5893 5893 5894 5894 5894 5895 5895 5895 5896 5896 5896
5886 5886 5886 5886 5886 5886 5886 5886 5886 5887 5887 5887 5887 5887 5888 5888 5889 5889 5890 5890 5890 5890 5890 5890 5890 5890 5891 5891 5890 5891 5891 5891 5891 5892 5892 5893 5893 5893 5893 5894 5894 5894 5894
5886 5886 5886 5886 5886 5886 5885 5885 5886 5886 5887 5887 5887 5887 5887 5887 5887 5888 5888 5888 5888 5889 5889 5889 5889 5889 5889 5889 5889 5889 5889 5889 5890 5890 5890 5891 5891 5891 5891 5892 5892 5892 5892
5886 5886 5886 5886 5886 5885 5885 5885 5885 5886 5886 5886 5886 5886 5886 5886 5886 5887 5887 5887 5887 5887 5887 5887 5887 5887 5887 5887 5887 5887 5887 5887 5887 5887 5888 5888 5889 5889 5889 5889 5889 5890 5890
5887 5886 5886 5886 5886 5886 5885 5885 5885 5885 5885 5885 5885 5885 5885 5885 5885 5886 5886 5885 5885 5885 5885 5885 5885 5885 5885 5885 5885 5885 5885 5884 5885 5885 5885 5886 5886 5886 5886 5887 5887 5887 5887
5887 5887 5886 5886 5886 5886 5885 5885 5885 5885 5885 5885 5885 5885 5884 5884 5884 5884 5884 5884 5884 5883 5883 5883 5883 5883 5883 5883 5883 5882 5882 5882 5882 5882 5882 5883 5883 5883 5883 5884 5884 5883 5883
5887 5887 5886 5886 5886 5886 5885 5885 5885 5884 5884 5884 5884 5883 5883 5883 5883 5883 5883 5882 5882 5882 5881 5881 5881 5881 5881 5880 5880 5880 5879 5879 5879 5879 5879 5879 5880 5880 5880 5880 5880 5880 5880
5887 5887 5886 5886 5886 5885 5885 5884 5884 5883 5883 5882 5882 5882 5882 5882 5881 5881 5881 5880 5880 5879 5879 5879 5878 5878 5878 5878 5878 5877 5877 5877 5876 5876 5876 5876 5876 5876 5876 5876 5876 5876 5876
5887 5886 5886 5885 5885 5885 5884 5884 5883 5883 5882 5881 5881 5881 5880 5880 5879 5879 5878 5878 5877 5877 5877 5876 5876 5876 5875 5875 5874 5874 5874 5874 5873 5873 5872 5872 5872 5872 5872 5872 5872 5872 5872
5887 5886 5885 5885 5884 5884 5884 5883 5882 5881 5881 5880 5879 5879 5878 5878 5877 5877 5876 5876 5875 5875 5874 5874 5873 5872 5872 5872 5871 5871 5871 5870 5870 5869 5869 5869 5868 5868 5868 5868 5868 5868 5868
5886 5885 5885 5884 5884 5883 5883 5882 5881 5881 5880 5879 5878 5877 5877 5876 5875 5875 5874 5874 5873 5872 5872 5871 5870 5869 5869 5868 5868 5867 5867 5867 5866 5866 5866 5865 5865 5864 5864 5863 5863 5863 5863
5886 5885 5884 5883 5883 5882 5882 5881 5880 5879 5878 5877 5876 5876 5875 5874 5873 5872 5872 5871 5870 5870 5869 5868 5867 5866 5866 5865 5864 5864 5863 5863 5862 5862 5861 5861 5860 5860 5859 5859 5859 5858 5858
5885 5884 5884 5883 5882 5881 5880 5879 5878 5878 5877 5876 5875 5873 5873 5872 5871 5870 5869 5868 5867 5867 5866 5865 5864 5863 5862 5861 5861 5860 5859 5858 5858 5857 5857 5856 5855 5855 5855 5854 5854 5854 5853
5884 5883 5883 5882 5881 5880 5879 5878 5877 5876 5875 5874 5872 5871 5870 5869 5868 5867 5866 5865 5864 5864 5863 5862 5860 5859 5858 5857 5857 5856 5855 5854 5853 5852 5852 5851 5850 5850 5850 5849 5849 5849 5849
5884 5882 5881 5880 5879 5878 5877 5876 5874 5873 5872 5871 5870 5869 5867 5866 5865 5864 5863 5862 5861 5860 5859 5858 5857 5855 5854 5853 5852 5851 5850 5849 5848 5847 5846 5846 5845 5845 5844 5844 5844 5844 5844
5882 5881 5880 5879 5877 5876 5875 5873 5872 5871 5869 5868 5867 5866 5864 5863 5861 5860 5859 5858 5857 5856 5855 5854 5853 5851 5850 5848 5847 5846 5844 5843 5843 5842 5841 5840 5840 5839 5839 5839 5838 5838 5838
5880 5879 5878 5877 5875 5874 5872 5870 5869 5868 5866 5865 5863 5862 5860 5859 5857 5856 5855 5854 5852 5851 5850 5849 5848 5847 5845 5844 5843 5841 5840 5838 5837 5836 5835 5835 5834 5834 5834 5833 5833 5833 5833
5878 5877 5876 5874 5873 5871 5869 5867 5866 5864 5863 5861 5859 5858 5856 5855 5853 5852 5851 5849 5848 5847 5845 5844 5843 5842 5840 5839 5838 5836 5835 5833 5832 5831 5830 5829 5828 5828 5828 5827 5827 5827 5827
5876 5874 5872 5871 5869 5867 5866 5864 5862 5860 5858 5857 5855 5854 5852 5851 5849 5848 5846 5845 5843 5842 5840 5839 5838 5837 5836 5834 5832 5831 5830 5828 5827 5825 5824 5823 5822 5822 5822 5822 5822 5822 5821
5872 5870 5869 5867 5865 5863 5861 5860 5858 5856 5854 5852 5850 5849 5847 5846 5844 5843 5841 5840 5838 5836 5835 5833 5833 5832 5830 5828 5827 5826 5824 5823 5822 5820 5818 5817 5817 5816 5816 5816 5816 5816 5816
5868 5866 5864 5862 5860 5858 5857 5855 5853 5851 5849 5847 5845 5843 5842 5840 5839 5837 5836 5834 5832 5831 5830 5828 5827 5826 5825 5823 5822 5821 5819 5818 5817 5815 5813 5812 5811 5811 5811 5810 5810 5810 5809
5862 5860 5858 5856 5855 5853 5851 5849 5847 5845 5844 5842 5840 5838 5836 5834 5833 5831 5830 5828 5827 5825 5824 5822 5821 5821 5820 5818 5816 5815 5813 5812 5811 5811 5808 5806 5806 5805 5805 5804 5804 5804 5803
5857 5855 5853 5851 5849 5847 5845 5843 5841 5840 5838 5836 5834 5832 5830 5828 5826 5825 5824 5822 5821 5819 5818 5817 5815 5814 5813 5812 5810 5809 5807 5806 5805 5804 5803 5802 5801 5800 5799 5798 5798 5797 5796
5850 5848 5846 5844 5842 5841 5839 5837 5835 5833 5831 5830 5828 5826 5824 5822 5820 5819 5818 5816 5815 5813 5812 5810 5809 5808 5807 5805 5804 5803 5801 5800 5799 5798 5797 5796 5795 5794 5793 5792 5791 5790 5789
5843 5841 5839 5837 5835 5833 5831 5830 5828 5826 5824 5823 5821 5819 5817 5815 5814 5812 5811 5810 5808 5807 5805 5804 5803 5801 5800 5799 5797 5796 5795 5793 5793 5792 5791 5790 5789 5788 5787 5786 5785 5783 5783
5835 5833 5831 5829 5827 5826 5824 5822 5819 5818 5817 5815 5814 5812 5810 5808 5807 5805 5804 5803 5801 5800 5799 5797 5796 5795 5794 5792 5791 5790 5788 5787 5786 5786 5785 5783 5782 5781 5780 5779 5778 5777 5776